Regional Weather Roundup
Issued by NWS

Home | Current Version | Previous Version | Text Only | Print | Product List | Glossary On
Versions: 1 2 3 4 5 6 7 8 9 10 11 12 13 14 15 16 17 18 19 20 21 22 23 24 25 26 27 28 29 30 31 32 33 34 35 36 37 38 39 40 41 42 43 44 45 46 47 48 49 50
000
ASUS44 KOUN 270510
RWROK

WEATHER ROUNDUP FOR OKLAHOMA
NATIONAL WEATHER SERVICE NORMAN OK
1200 AM CDT SUN MAY 27 2018

NOTE: "FAIR" INDICATES FEW OR NO CLOUDS BELOW 12,000 FEET WITH NO
      SIGNIFICANT WEATHER AND/OR OBSTRUCTIONS TO VISIBILITY.

OKZ001>007-009>012-014-015-017-270600-
NORTHWEST OKLAHOMA AND THE PANHANDLE

CITY           SKY/WX    TMP DP  RH WIND       PRES   REMARKS
GAGE           PTCLDY    77  64  64 SE9       29.85R
GUYMON         PTCLDY    73  61  65 SE8       29.86R
ENID/WOODRING    N/A     70  70 100 S3        29.84S
$$

OKZ016-021>023-033>039-044-045-270600-
SOUTHWEST OKLAHOMA

CITY           SKY/WX    TMP DP  RH WIND       PRES   REMARKS
LAWTON/REGL    CLEAR     77  70  79 E8        29.82R
LAWTON/FT SILL CLEAR     77  72  85 SE8       29.82R
FREDERICK      CLEAR     79  70  74 E14       29.79R
CLINTON        CLEAR     77  66  68 SE10      29.86R
HOBART         CLEAR     75  68  78 E10       29.84R
ALTUS AFB      CLEAR     79  67  65 E14       29.81R
$$

OKZ018>020-024>031-270600-
CENTRAL OKLAHOMA

CITY           SKY/WX    TMP DP  RH WIND       PRES   REMARKS
OKLAHOMA CITY  PTCLDY    76  70  82 SE8       29.86R
OKC/WILEY POST CLEAR     80  71  74 SE9       29.86R
OKC/TINKER AFB CLEAR     74  69  83 E6        29.86R
STILLWATER     CLEAR     76  65  68 SE8       29.85R
GUTHRIE        CLEAR     76  69  79 SE6       29.85R
$$

OKZ008-013-054>072-270600-
NORTHEAST OKLAHOMA

CITY           SKY/WX    TMP DP  RH WIND       PRES   REMARKS
TULSA          PTCLDY    79  65  62 S3        29.84R
TULSA/JONES    PTCLDY    72  68  87 CALM      29.85R
PONCA CITY     CLEAR     75  64  68 SE6       29.84R
BARTLESVILLE   CLEAR     68  65  90 CALM      29.85R
MUSKOGEE       CLEAR     74  73  97 SE3       29.85R
$$

OKZ032-040>043-046>053-073>077-270600-
SOUTH CENTRAL/SOUTHEAST OKLAHOMA

CITY           SKY/WX    TMP DP  RH WIND       PRES   REMARKS
ARDMORE/DWNTWN PTCLDY    77  64  65 CALM      29.83S
MCALESTER      PTCLDY    72  68  87 E5        29.85S
$$





USA.gov is the U.S. government's official web portal to all federal, state and local government web resources and services.